| time (UTC) | temp F | wind direction | speed MPH | gust MPH | rain 1hr in | rain 24hr in | rain mn in | humidity % | barometer mb |
| 20260506154554 | 75 | 235 | 4.0 | 11.0 | 0.00 | 0.00 | 0.00 | 47 | 1005.9 |
| 20260506153056 | 74 | 253 | 9.0 | 14.0 | 0.00 | 0.00 | 0.00 | 45 | 1006.1 |
| 20260506151551 | 76 | 211 | 8.0 | 16.0 | 0.00 | 0.00 | 0.00 | 45 | 1006.1 |
| 20260506150052 | 76 | 264 | 9.0 | 17.0 | 0.00 | 0.00 | 0.00 | 44 | 1006.1 |
| 20260506144552 | 76 | 248 | 11.0 | 16.0 | 0.00 | 0.00 | 0.00 | 45 | 1006.1 |
| 20260506143050 | 75 | 213 | 9.0 | 20.0 | 0.00 | 0.00 | 0.00 | 46 | 1006.2 |
| 20260506141556 | 76 | 259 | 8.0 | 19.0 | 0.00 | 0.00 | 0.00 | 45 | 1006.0 |
| 20260506140100 | 75 | 275 | 9.0 | 17.0 | 0.00 | 0.00 | 0.00 | 48 | 1006.0 |
| 20260506134558 | 76 | 268 | 8.0 | 20.0 | 0.00 | 0.00 | 0.00 | 46 | 1005.9 |
| 20260506133049 | 75 | 225 | 11.0 | 22.0 | 0.00 | 0.00 | 0.00 | 47 | 1005.9 |
| 20260506131601 | 75 | 238 | 12.0 | 22.0 | 0.00 | 0.00 | 0.00 | 46 | 1005.9 |
| 20260506130112 | 74 | 181 | 10.0 | 22.0 | 0.00 | 0.00 | 0.00 | 48 | 1005.9 |
| 20260506124558 | 74 | 221 | 10.0 | 21.0 | 0.00 | 0.00 | 0.00 | 48 | 1006.0 |
| 20260506123051 | 75 | 221 | 10.0 | 18.0 | 0.00 | 0.00 | 0.00 | 47 | 1005.9 |
| 20260506121550 | 75 | 209 | 10.0 | 17.0 | 0.00 | 0.00 | 0.00 | 46 | 1006.0 |
| 20260506120049 | 75 | 226 | 10.0 | 19.0 | 0.00 | 0.00 | 0.00 | 45 | 1006.0 |
| 20260506114550 | 76 | 269 | 9.0 | 19.0 | 0.00 | 0.00 | 0.00 | 43 | 1005.8 |
| 20260506113056 | 76 | 173 | 10.0 | 21.0 | 0.00 | 0.00 | 0.00 | 42 | 1005.7 |
| 20260506111552 | 75 | 211 | 10.0 | 21.0 | 0.00 | 0.00 | 0.00 | 44 | 1005.6 |
| 20260506110056 | 76 | 258 | 9.0 | 23.0 | 0.00 | 0.00 | 0.00 | 42 | 1005.6 |
| 20260506104556 | 76 | 163 | 9.0 | 22.0 | 0.00 | 0.00 | 0.00 | 42 | 1005.6 |
| 20260506103057 | 76 | 215 | 12.0 | 18.0 | 0.00 | 0.00 | 0.00 | 42 | 1005.8 |
| 20260506101600 | 75 | 244 | 9.0 | 17.0 | 0.00 | 0.00 | 0.00 | 43 | 1005.9 |
| 20260506100114 | 74 | 254 | 9.0 | 16.0 | 0.00 | 0.00 | 0.00 | 41 | 1005.8 |
| 20260506094553 | 74 | 201 | 6.0 | 16.0 | 0.00 | 0.00 | 0.00 | 43 | 1006.0 |
| 20260506093053 | 73 | 204 | 7.0 | 18.0 | 0.00 | 0.00 | 0.00 | 42 | 1006.1 |
| 20260506091551 | 73 | 196 | 8.0 | 16.0 | 0.00 | 0.00 | 0.00 | 41 | 1006.2 |
| 20260506090107 | 73 | 167 | 7.0 | 11.0 | 0.00 | 0.00 | 0.00 | 42 | 1006.0 |
| 20260506084621 | 72 | 177 | 7.0 | 15.0 | 0.00 | 0.00 | 0.00 | 41 | 1006.0 |
| 20260506083051 | 72 | 213 | 8.0 | 13.0 | 0.00 | 0.00 | 0.00 | 42 | 1005.9 |
| 20260506081557 | 71 | 203 | 7.0 | 13.0 | 0.00 | 0.00 | 0.00 | 44 | 1006.1 |
| 20260506073056 | 69 | 242 | 7.0 | 11.0 | 0.00 | 0.00 | 0.00 | 47 | 1006.3 |
| 20260506071552 | 68 | 209 | 6.0 | 12.0 | 0.00 | 0.00 | 0.00 | 47 | 1006.0 |
| 20260506061551 | 67 | 158 | 6.0 | 11.0 | 0.00 | 0.00 | 0.00 | 48 | 1006.3 |
| 20260506044704 | 60 | 171 | 1.0 | 5.0 | 0.00 | 0.00 | 0.00 | 60 | 1006.7 |
| 20260506043050 | 58 | 111 | 0.0 | 4.0 | 0.00 | 0.00 | 0.00 | 63 | 1006.8 |
| 20260506041602 | 56 | 126 | 1.0 | 6.0 | 0.00 | 0.00 | 0.00 | 65 | 1007.0 |
| 20260506040050 | 54 | 146 | 2.0 | 7.0 | 0.00 | 0.00 | 0.00 | 69 | 1006.9 |
| 20260506034624 | 51 | 0 | 0.0 | 2.0 | 0.00 | 0.00 | 0.00 | 72 | 1006.7 |
| 20260506033049 | 51 | 135 | 1.0 | 3.0 | 0.00 | 0.00 | 0.00 | 72 | 1006.6 |
| 20260506031553 | 50 | 108 | 1.0 | 3.0 | 0.00 | 0.00 | 0.00 | 73 | 1006.6 |
| 20260506030053 | 50 | 108 | 2.0 | 3.0 | 0.00 | 0.00 | 0.00 | 72 | 1006.8 |
| 20260506024552 | 51 | 108 | 1.0 | 3.0 | 0.00 | 0.00 | 0.00 | 72 | 1006.8 |
| 20260506023111 | 51 | 120 | 2.0 | 4.0 | 0.00 | 0.00 | 0.00 | 72 | 1006.8 |
| 20260506021552 | 51 | 132 | 1.0 | 3.0 | 0.00 | 0.00 | 0.00 | 72 | 1006.9 |
| 20260506020056 | 52 | 132 | 1.0 | 3.0 | 0.00 | 0.00 | 0.00 | 71 | 1006.9 |
| 20260506014555 | 53 | 132 | 0.0 | 3.0 | 0.00 | 0.00 | 0.00 | 68 | 1007.1 |
| 20260506013053 | 52 | 116 | 2.0 | 4.0 | 0.00 | 0.00 | 0.00 | 69 | 1007.0 |
| 20260506011608 | 52 | 71 | 2.0 | 3.0 | 0.00 | 0.00 | 0.00 | 70 | 1006.8 |
| 20260506010100 | 53 | 71 | 2.0 | 3.0 | 0.00 | 0.00 | 0.00 | 68 | 1006.8 |
| 20260506004624 | 55 | 146 | 1.0 | 3.0 | 0.00 | 0.00 | 0.00 | 63 | 1007.0 |
| 20260506003104 | 56 | 0 | 1.0 | 3.0 | 0.00 | 0.00 | 0.00 | 61 | 1006.8 |
| 20260506001555 | 57 | 199 | 2.0 | 3.0 | 0.00 | 0.00 | 0.00 | 59 | 1007.0 |
| 20260506000058 | 58 | 0 | 0.0 | 0.0 | 0.00 | 0.00 | 0.00 | 58 | 1007.0 |
| 20260505234617 | 58 | 0 | 0.0 | 0.0 | 0.00 | 0.00 | 0.00 | 58 | 1006.9 |
| 20260505233051 | 59 | 274 | 0.0 | 3.0 | 0.00 | 0.00 | 0.00 | 57 | 1006.8 |
| 20260505231556 | 58 | 34 | 1.0 | 3.0 | 0.00 | 0.00 | 0.00 | 58 | 1006.7 |
| 20260505230051 | 60 | 83 | 1.0 | 2.0 | 0.00 | 0.00 | 0.00 | 55 | 1006.6 |
| 20260505224550 | 62 | 0 | 0.0 | 3.0 | 0.00 | 0.00 | 0.00 | 51 | 1006.6 |
| 20260505223048 | 64 | 157 | 3.0 | 7.0 | 0.00 | 0.00 | 0.00 | 48 | 1006.6 |
| 20260505221551 | 65 | 160 | 7.0 | 12.0 | 0.00 | 0.00 | 0.00 | 47 | 1006.6 |
| 20260505220105 | 65 | 151 | 6.0 | 12.0 | 0.00 | 0.00 | 0.00 | 46 | 1006.8 |
| 20260505214602 | 65 | 136 | 6.0 | 11.0 | 0.00 | 0.00 | 0.00 | 46 | 1006.7 |
| 20260505213101 | 66 | 162 | 7.0 | 11.0 | 0.00 | 0.00 | 0.00 | 45 | 1006.7 |
| 20260505211559 | 66 | 171 | 6.0 | 11.0 | 0.00 | 0.00 | 0.00 | 44 | 1006.7 |
| 20260505210053 | 65 | 170 | 5.0 | 11.0 | 0.00 | 0.00 | 0.00 | 44 | 1006.6 |
| 20260505204609 | 66 | 167 | 4.0 | 9.0 | 0.00 | 0.00 | 0.00 | 43 | 1006.6 |
| 20260505203054 | 66 | 147 | 4.0 | 9.0 | 0.00 | 0.00 | 0.00 | 41 | 1006.5 |
| 20260505201602 | 67 | 172 | 3.0 | 9.0 | 0.00 | 0.00 | 0.00 | 39 | 1006.5 |
| 20260505200054 | 67 | 146 | 3.0 | 7.0 | 0.00 | 0.00 | 0.00 | 38 | 1006.6 |
| 20260505194556 | 67 | 157 | 3.0 | 8.0 | 0.00 | 0.00 | 0.00 | 39 | 1006.5 |
| 20260505193058 | 67 | 138 | 4.0 | 8.0 | 0.00 | 0.00 | 0.00 | 38 | 1006.6 |
| 20260505191558 | 67 | 146 | 2.0 | 5.0 | 0.00 | 0.00 | 0.00 | 38 | 1006.8 |
| 20260505190054 | 68 | 124 | 3.0 | 6.0 | 0.00 | 0.00 | 0.00 | 38 | 1006.6 |
| 20260505184558 | 69 | 116 | 2.0 | 5.0 | 0.00 | 0.00 | 0.00 | 36 | 1006.7 |
| 20260505183054 | 69 | 141 | 2.0 | 4.0 | 0.00 | 0.00 | 0.00 | 36 | 1006.7 |
| 20260505181551 | 70 | 142 | 2.0 | 5.0 | 0.00 | 0.00 | 0.00 | 35 | 1006.7 |
| 20260505180056 | 71 | 144 | 2.0 | 5.0 | 0.00 | 0.00 | 0.00 | 35 | 1006.7 |
| 20260505174607 | 73 | 143 | 2.0 | 5.0 | 0.00 | 0.00 | 0.00 | 34 | 1006.6 |
| 20260505173053 | 74 | 144 | 2.0 | 5.0 | 0.00 | 0.00 | 0.00 | 32 | 1006.7 |
| 20260505171549 | 75 | 162 | 3.0 | 6.0 | 0.00 | 0.00 | 0.00 | 30 | 1006.6 |
| 20260505170123 | 75 | 173 | 4.0 | 7.0 | 0.00 | 0.00 | 0.00 | 29 | 1006.6 |
| 20260505164551 | 75 | 173 | 1.0 | 7.0 | 0.00 | 0.00 | 0.00 | 29 | 1006.7 |
| 20260505163048 | 76 | 161 | 3.0 | 10.0 | 0.00 | 0.00 | 0.00 | 28 | 1006.8 |
| 20260505161600 | 77 | 178 | 4.0 | 12.0 | 0.00 | 0.00 | 0.00 | 27 | 1006.9 |